Regional Weather Roundup
Issued by NWS Charleston, SC

Current Version | Previous Version | Graphics & Text | Print | Product List | Glossary On
Versions: 1 2 3 4 5 6 7 8 9 10 11 12 13 14 15 16 17 18 19 20 21 22 23 24 25 26 27 28 29 30 31 32 33 34 35 36 37 38 39 40 41 42 43 44 45 46 47 48 49 50
000
ASUS42 KCHS 030013
RWRCHS

REGIONAL WEATHER ROUNDUP
NATIONAL WEATHER SERVICE CHARLESTON SC
800 PM EDT MON MAY 02 2016

NOTE: "FAIR" INDICATES FEW OR NO CLOUDS BELOW 12,000 FEET WITH NO
SIGNIFICANT WEATHER AND/OR OBSTRUCTIONS TO VISIBILITY.

NOT ALL STATIONS ARE QUALITY CONTROLLED. USE DATA WITH CAUTION...
ESPECIALLY DEWPOINT OBSERVATIONS.

SCZ027-030-031-034>040-042>050-030100-
...SOUTHEAST SOUTH CAROLINA...

CITY           SKY/WX    TMP DP  RH WIND       PRES   REMARKS
N CHARLESTON   LGT RAIN  75  71  87 S9        29.96S
6HR MIN TEMP:  75; 6HR MAX TEMP:  87; 6HR PCP: TRACE;

WATERFRONT PRK   N/A     75  73  93 SW7       29.95R
MOUNT PLEASANT FAIR      75  73  94 S13       29.97S
JOHNS ISLAND   FAIR      75  73  94 S7        29.97S
PINOPOLIS        N/A     79  66  65 S5        29.87R
MONCKS CORNER  LGT RAIN  72  64  78 S6        29.97R
SUMMERVILLE    LGT RAIN  73  73 100 CALM      29.97R
BEAUFORT MCAS  LGT RAIN  74  72  93 SW3       29.96S FOG
6HR MIN TEMP:  73; 6HR MAX TEMP:  86; 6HR PCP:  0.13;

BEAUFORT ARPT  LGT RAIN  75  72  88 S6        29.96S
HILTON HEAD IS NOT AVBL
WALTERBORO     CLOUDY    72  72 100 S3        29.97S
ALLENDALE      FAIR      70  68  94 VRB6      29.94S

...SOUTHERN MIDLANDS AND PEE DEE...

CITY           SKY/WX    TMP DP  RH WIND       PRES   REMARKS
GEORGETOWN     FAIR      73  68  83 S6        29.98R
KINGSTREE      MOCLDY    72  68  88 CALM      29.96R
ORANGEBURG     LGT RAIN  71  67  87 W5        29.96F
6HR MIN TEMP:  71; 6HR MAX TEMP:  87; 6HR PCP:  0.06;

BARNWELL       FAIR      72  72 100 CALM      29.96F
AIKEN          CLOUDY    68  64  88 SE15G21   29.98R THUNDER
MANNING        MOCLDY    72  70  94 CALM      29.97R
COLUMBIA       LGT RAIN  72  67  84 S13G25    29.94R
6HR MIN TEMP:  72; 6HR MAX TEMP:  88; 6HR PCP:  0.30;

SUMTER         NOT AVBL
FLORENCE       CLOUDY    75  68  78 SW13      29.94R
6HR MIN TEMP:  75; 6HR MAX TEMP:  87; 6HR PCP: TRACE;

MYRTLE BEACH   PTCLDY    75  64  69 SW13      29.98
N MYRTLE BEACH PTCLDY    74  70  87 S13       29.96S
6HR MIN TEMP:  74; 6HR MAX TEMP:  79;


$$

GAZ063-065-086>088-099>101-113>116-118-119-134>141-150-030100-
...SOUTHEAST GEORGIA...

CITY           SKY/WX    TMP DP  RH WIND       PRES   REMARKS
SAVANNAH ARPT  LGT RAIN  75  71  87 CALM      29.97R
6HR MIN TEMP:  75; 6HR MAX TEMP:  88; 6HR PCP:  0.15;

HUNTER AAF     NOT AVBL
FORT STEWART   NOT AVBL
STATESBORO     TSTM      73  71  96 S10       29.97R
SYLVANIA       TSTM      70  69  97 S5        29.97F
CLAXTON        MOCLDY    70  70  99 CALM      29.98R FOG

...CSRA...CENTRAL AND FAR SOUTHEAST GEORGIA...

CITY           SKY/WX    TMP DP  RH WIND       PRES   REMARKS
THOMSON        MOCLDY    75  74  97 CALM      29.96R
AUGUSTA-BUSH   CLOUDY    71  68  90 SE10G20   29.93R
6HR MIN TEMP:  70; 6HR MAX TEMP:  89; 6HR PCP:  0.56;

AUGUSTA-DANIEL CLOUDY    73  68  84 SE10      29.94R
SWAINSBORO     FAIR      73  70  88 SE8       29.96R
VIDALIA        CLOUDY    70  68  94 E8        29.98R
EASTMAN        LGT RAIN  72  72 100 S5        29.96F
HAZLEHURST     FAIR      77  71  81 CALM      29.95R
ALMA           CLOUDY    72  71  97 NE3       29.95R FOG
6HR MIN TEMP:  71; 6HR MAX TEMP:  89; 6HR PCP:  0.49;

WAYCROSS       CLOUDY    76  70  82 N5        29.95R
JESUP          FAIR      73  73 100 CALM      29.96R
BAXLEY         MOCLDY    72  72 100 CALM      29.96R
BRUNSWICK      CLOUDY    81  73  78 S6        29.96R
SAINT SIMONS   CLOUDY    76  73  91 SE7       29.95S
6HR MIN TEMP:  76; 6HR MAX TEMP:  82;


$$

SCZ027-028-034-036>038-045-046-048>050-GAZ119-141-030100-
...LAKE AND SUPPLEMENTAL COASTAL OBSERVATIONS...

STATION/POSITION TIME  TEMP    WIND        PRES    WAVE   SWELL
                       AIR SEA DIR/SP/G            HT/PER HT/PER/DIR
                 (UTC) (F)     (DEG/KT/KT) (MB)    (FT/S) (FT/S/D)
WINYAH BAY       NOT AVBL
LAKE MURRAY      2300   76     180/  4/  4 1012.2F
ACE BASIN NERRS  2245   74        CALM     1014.0
FORT PULASKI     2300   76 74  180/  3/  6 1015.2R
SAPELO ISLAND    2300   77     160/  8     1014.0S

$$

ANZ835-935-AMZ111-154-330-350-352-354-370-450-454-472-030100-
...C-MAN AND BUOY OBSERVATIONS...

STATION/POSITION TIME  TEMP    WIND        PRES    WAVE   SWELL
                       AIR SEA DIR/SP/G            HT/PER HT/PER/DIR
                 (UTC) (F)     (DEG/KT/KT) (MB)    (FT/S) (FT/S/D)
BUOY 41004       2350   76 75  170/  8/ 10 1014.7R   3/ 8   3/ 8
BUOY 41008       NOT AVBL
FOLLY BEACH CMAN 0000   74     190/  8/  9 1014.9R
CAPERS NEARSHORE 2308   74 74  200/ 12/ 16 1014.5R
FRIPP NEARSHORE  2308   75 75  190/ 12/ 14 1013.9R


STATION/POSITION TIME  TEMP    WIND        PRES    WAVE   SWELL
                       AIR SEA DIR/SP/G            HT/PER HT/PER/DIR
                 (UTC) (F)     (DEG/KT/KT) (MB)    (FT/S) (FT/S/D)
5E ST. MARYS GA  2321      74                N/A     3/ 5
FRYING PAN BUOY  2300   75 74  180/  8/ 10 1015.4R
BUOY 41025       2350   75 74  220/ 14/ 17 1015.3R   4/10   3/ 80/10
CAPE LOOKOUT NC  0000   71     200/ 10/ 11 1014.9R
BUOY 41002       2350   74 75  160/ 14/ 16 1018.3R   4/11   3/ 30/11
BUOY 41010       2320   77 79  140/ 14/ 16 1016.2F
ST AUGUSTINE FL  0000   75 75  150/ 15/ 17 1014.9F


$$



USA.gov is the U.S. government's official web portal to all federal, state and local government web resources and services.